{"data":{"norad_id":65848,"intl_designator":"2025-221AB","name":"STARLINK-35308","alt_names":[],"object_type":"PAYLOAD","status":"ACTIVE","operator":null,"country":"US","launch_date":"2025-09-29","launch_site_code":"AFWTR","launch_vehicle":null,"mission":null,"orbit_class":"UNKNOWN","rcs_meters":null,"size_class":null,"mass_kg":null,"dimensions":null,"purposes":["comms"],"wikipedia_slug":null,"has_3d_model":false,"image_url":null,"decayed_at":null,"tle_current":{"epoch":"2026-05-25T03:24:02.365056Z","epoch_age_seconds":62861,"freshness":"FRESH","line1":"1 65848U 25221AB  26145.14169404  .00026966  00000+0  80628-3 0  9995","line2":"2 65848  53.1594  92.8636 0001034  72.0370 288.0745 15.34403617 37795","mean_motion":15.34403617,"eccentricity":0.0001034,"inclination_deg":53.1594,"raan_deg":92.8636,"arg_perigee_deg":72.037,"mean_anomaly_deg":288.0745,"bstar":0.00080628,"rev_number":3779,"period_min":93.847536857051,"perigee_km":461.98514797274,"apogee_km":463.39983151121,"semimajor_km":6840.829489742,"source":"CELESTRAK","updated_at":"2026-05-25T13:38:20.947381Z"}}}